TimeCST,TemperatureF,Dew PointF,Humidity,Sea Level PressureIn,VisibilityMPH,Wind Direction,Wind SpeedMPH,Gust SpeedMPH,PrecipitationIn,Events,Conditions,WindDirDegrees,DateUTC
12:53 AM,70.0,66.9,90,29.93,10.0,South,8.1,-,N/A,,Clear,180,2012-12-10 06:53:00
1:53 AM,70.0,66.9,90,29.91,10.0,South,10.4,-,N/A,,Clear,180,2012-12-10 07:53:00
2:30 AM,69.8,66.2,88,29.90,10.0,South,6.9,-,N/A,,Partly Cloudy,190,2012-12-10 08:30:00
2:53 AM,70.0,66.9,90,29.90,10.0,South,9.2,19.6,N/A,,Scattered Clouds,190,2012-12-10 08:53:00
3:53 AM,71.1,66.9,87,29.88,10.0,South,9.2,-,N/A,,Mostly Cloudy,180,2012-12-10 09:53:00
4:53 AM,71.1,66.9,87,29.85,10.0,South,10.4,-,N/A,,Scattered Clouds,180,2012-12-10 10:53:00
5:53 AM,71.1,66.9,87,29.84,10.0,South,9.2,-,N/A,,Overcast,180,2012-12-10 11:53:00
6:21 AM,71.6,68.0,88,29.84,10.0,South,9.2,-,N/A,,Overcast,180,2012-12-10 12:21:00
6:38 AM,71.6,68.0,88,29.84,10.0,South,9.2,16.1,N/A,,Overcast,170,2012-12-10 12:38:00
6:53 AM,71.1,68.0,90,29.84,10.0,South,9.2,-,N/A,,Overcast,170,2012-12-10 12:53:00
7:49 AM,71.6,68.0,88,29.86,10.0,South,9.2,-,N/A,,Mostly Cloudy,190,2012-12-10 13:49:00
7:53 AM,71.1,68.0,90,29.86,10.0,South,9.2,-,N/A,,Mostly Cloudy,180,2012-12-10 13:53:00
8:04 AM,71.6,68.0,88,29.86,10.0,SSW,10.4,-,N/A,,Mostly Cloudy,200,2012-12-10 14:04:00
8:25 AM,71.6,68.0,88,29.86,10.0,South,9.2,17.3,N/A,,Scattered Clouds,190,2012-12-10 14:25:00
8:53 AM,73.9,69.1,85,29.87,10.0,Variable,6.9,18.4,N/A,,Partly Cloudy,0,2012-12-10 14:53:00
9:53 AM,75.9,68.0,76,29.85,10.0,SSW,8.1,20.7,N/A,,Clear,200,2012-12-10 15:53:00
10:53 AM,75.9,68.0,76,29.84,10.0,SW,12.7,17.3,N/A,,Scattered Clouds,230,2012-12-10 16:53:00
11:53 AM,73.9,66.0,76,29.82,10.0,SSW,9.2,19.6,N/A,,Mostly Cloudy,210,2012-12-10 17:53:00
12:44 PM,69.8,66.2,88,29.81,1.8,WSW,16.1,28.8,0.07,Rain,Heavy Rain,240,2012-12-10 18:44:00
12:47 PM,69.8,66.2,88,29.81,4.0,WSW,10.4,28.8,0.07,Rain-Thunderstorm,Thunderstorms and Rain,240,2012-12-10 18:47:00
12:53 PM,69.1,66.0,90,29.81,5.0,WSW,8.1,21.9,0.07,Thunderstorm,Overcast,240,2012-12-10 18:53:00
1:11 PM,69.8,64.4,83,29.81,10.0,WSW,10.4,18.4,N/A,,Mostly Cloudy,240,2012-12-10 19:11:00
1:53 PM,66.0,63.0,90,29.81,5.0,SSW,5.8,-,0.02,Rain,Light Rain,200,2012-12-10 19:53:00
2:28 PM,66.2,62.6,88,29.80,10.0,SW,6.9,-,0.01,Rain,Light Rain,230,2012-12-10 20:28:00
2:36 PM,66.2,62.6,88,29.79,10.0,SW,6.9,-,0.01,,Overcast,230,2012-12-10 20:36:00
2:53 PM,66.0,64.0,93,29.81,10.0,Variable,3.5,-,0.01,Rain,Light Rain,0,2012-12-10 20:53:00
3:53 PM,66.0,64.0,93,29.81,8.0,West,3.5,-,0.01,Rain,Light Rain,260,2012-12-10 21:53:00
4:53 PM,66.0,64.0,93,29.81,10.0,Calm,Calm,-,0.00,,Overcast,0,2012-12-10 22:53:00
5:08 PM,66.2,64.4,94,29.81,10.0,WNW,5.8,-,N/A,,Mostly Cloudy,300,2012-12-10 23:08:00
5:15 PM,66.2,62.6,88,29.81,10.0,NNW,6.9,-,N/A,,Mostly Cloudy,330,2012-12-10 23:15:00
5:53 PM,61.0,59.0,93,29.85,4.0,NNW,9.2,-,N/A,,Overcast,340,2012-12-10 23:53:00
6:42 PM,55.4,55.4,100,29.88,2.5,NNW,8.1,17.3,N/A,,Overcast,330,2012-12-11 00:42:00
6:50 PM,55.4,55.4,100,29.88,6.0,NNW,8.1,-,N/A,,Overcast,340,2012-12-11 00:50:00
6:53 PM,55.0,55.0,100,29.88,8.0,NNW,10.4,-,N/A,,Overcast,330,2012-12-11 00:53:00
7:09 PM,53.6,53.6,100,29.89,10.0,NNW,10.4,17.3,N/A,,Overcast,330,2012-12-11 01:09:00
7:53 PM,54.0,53.1,97,29.92,10.0,NNW,8.1,-,N/A,,Overcast,330,2012-12-11 01:53:00
8:24 PM,53.6,51.8,94,29.92,10.0,NNW,15.0,-,N/A,,Overcast,340,2012-12-11 02:24:00
8:53 PM,52.0,50.0,93,29.93,10.0,NNW,15.0,20.7,N/A,,Overcast,340,2012-12-11 02:53:00
9:53 PM,51.1,46.9,86,29.94,10.0,North,10.4,23.0,N/A,,Overcast,350,2012-12-11 03:53:00
10:53 PM,50.0,45.0,83,29.96,10.0,NNW,10.4,18.4,N/A,,Overcast,340,2012-12-11 04:53:00
11:53 PM,48.9,43.0,80,29.96,10.0,North,12.7,-,N/A,,Overcast,360,2012-12-11 05:53:00